Date String (YYYY-MM-DD hh:mm:ss) UTC,Instrument flags,absolute air pressure of the measurement (hPa),sample flow rate (lpm),inlet stack bypass flow (lpm),air temperature of the measurement (°C),ambient temperature measured by the external sensor (°C),aerosol sample conditioner tube jacket temperature (°C),OPC LED temperature (°C),internal box temperature (°C),relative humidity of the measurement (%),span deviation,mass concentration of particles derived from Lorenz-Mie calculation of OPC scattering (μg/m³),mass concentration of particles derived from Lorenz-Mie calculation of OPC scattering (μg/m³),mass concentration of particles derived from Lorenz-Mie calculation of OPC scattering (μg/m³)
DateTimeUTC,F1_M11,P_M11,Q1_M11,Q2_M11,T1_M11,T2_M11,T3_M11,T4_M11,T5_M11,U1_M11,ZSPAN_M11,X2_M11,X0_M11,X1_M11
2024-06-07 22:00:00,SystemResetWarning,0825.8,5.00,000.00,028.6,027.4,000.0,037.0,030.3,018.8,0000.0,0003.02,0009.86,0001.77
2024-06-07 22:01:00,SystemResetWarning,0825.8,5.00,000.00,028.7,027.8,000.0,037.0,030.5,018.1,0000.0,0003.07,0009.76,0001.78
2024-06-07 22:02:00,SystemResetWarning,0825.8,5.00,000.00,028.8,028.1,000.0,037.0,030.6,017.5,0000.0,0003.08,0009.77,0001.79
2024-06-07 22:03:00,SystemResetWarning,0825.9,4.99,000.00,028.9,028.3,000.0,037.0,030.7,017.3,0000.0,0003.05,0009.43,0001.79
2024-06-07 22:04:00,SystemResetWarning,0825.8,5.00,000.00,029.0,028.5,000.0,037.0,030.9,017.8,0000.0,0003.08,0009.55,0001.81
2024-06-07 22:05:00,SystemResetWarning,0825.8,5.00,000.00,029.1,028.7,000.0,037.0,031.0,018.3,0000.0,0003.10,0010.62,0001.82
2024-06-07 22:06:00,SystemResetWarning,0825.8,5.00,000.00,029.2,028.7,000.0,037.1,031.0,018.2,0000.0,0003.12,0010.89,0001.86
2024-06-07 22:07:00,SystemResetWarning,0825.7,5.00,000.00,029.0,027.0,000.0,037.2,030.1,018.3,0000.0,0003.14,0010.92,0001.89
2024-06-07 22:08:00,SystemResetWarning,0825.6,5.01,000.00,028.7,025.6,000.0,037.2,029.4,018.4,0000.0,0003.15,0010.83,0001.92
2024-06-07 22:09:00,SystemResetWarning,0825.7,5.02,000.00,028.5,026.0,000.0,037.2,029.6,018.5,0000.0,0003.13,0010.46,0001.95
2024-06-07 22:10:00,SystemResetWarning,0825.6,5.00,000.00,028.5,026.5,000.0,037.1,029.8,018.1,0000.0,0003.12,0008.80,0001.98
2024-06-07 22:11:00,SystemResetWarning,0825.6,5.00,000.00,028.6,027.0,000.0,037.0,030.1,018.0,0000.0,0003.13,0008.45,0002.03
2024-06-07 22:12:00,SystemResetWarning,0825.7,5.00,000.00,028.7,027.4,000.0,037.0,030.3,019.0,0000.0,0003.13,0008.12,0002.05
2024-06-07 22:13:00,SystemResetWarning,0825.7,5.00,000.00,028.7,027.7,000.0,037.0,030.5,018.1,0000.0,0003.14,0008.20,0002.06
2024-06-07 22:14:00,SystemResetWarning,0825.7,4.99,000.00,028.8,028.0,000.0,037.0,030.6,018.2,0000.0,0003.12,0008.92,0002.06
2024-06-07 22:15:00,SystemResetWarning,0825.7,4.99,000.00,028.9,028.3,000.0,037.0,030.8,018.1,0000.0,0003.11,0008.78,0002.06
2024-06-07 22:16:00,SystemResetWarning,0825.6,5.00,000.00,029.0,028.5,000.0,037.0,030.9,017.8,0000.0,0003.13,0007.84,0002.08
2024-06-07 22:17:00,SystemResetWarning,0825.6,5.00,000.00,029.1,028.7,000.0,037.1,031.0,017.1,0000.0,0003.12,0007.42,0002.09
2024-06-07 22:18:00,SystemResetWarning,0825.6,5.00,000.00,029.1,028.4,000.0,037.2,030.8,017.6,0000.0,0003.12,0007.37,0002.12
2024-06-07 22:19:00,SystemResetWarning,0825.6,5.00,000.00,028.9,026.3,000.0,037.2,029.8,017.5,0000.0,0003.10,0007.42,0002.16
2024-06-07 22:20:00,SystemResetWarning,0825.5,5.01,000.00,028.5,025.5,000.0,037.2,029.4,017.5,0000.0,0003.14,0007.50,0002.20
2024-06-07 22:21:00,SystemResetWarning,0825.6,5.01,000.00,028.5,026.1,000.0,037.2,029.6,017.5,0000.0,0003.16,0007.46,0002.23
2024-06-07 22:22:00,SystemResetWarning,0825.6,4.99,000.00,028.5,026.6,000.0,037.1,029.9,018.2,0000.0,0003.17,0008.24,0002.26
2024-06-07 22:23:00,SystemResetWarning,0825.6,5.00,000.00,028.6,027.0,000.0,037.0,030.1,018.6,0000.0,0003.18,0008.17,0002.30
2024-06-07 22:24:00,SystemResetWarning,0825.5,5.00,000.00,028.7,027.5,000.0,037.0,030.3,018.4,0000.0,0003.18,0008.12,0002.33
2024-06-07 22:25:00,SystemResetWarning,0825.4,4.99,000.00,028.7,027.8,000.0,037.0,030.5,018.0,0000.0,0003.23,0008.03,0002.39
2024-06-07 22:26:00,SystemResetWarning,0825.5,5.01,000.00,028.8,028.1,000.0,037.0,030.6,017.5,0000.0,0003.25,0008.69,0002.44
2024-06-07 22:27:00,SystemResetWarning,0825.4,5.00,000.00,028.9,028.4,000.0,037.0,030.8,017.6,0000.0,0003.27,0008.82,0002.48
2024-06-07 22:28:00,SystemResetWarning,0825.4,4.99,000.00,029.0,028.6,000.0,037.1,030.9,017.6,0000.0,0003.27,0008.80,0002.51
2024-06-07 22:29:00,SystemResetWarning,0825.4,5.00,000.00,029.1,028.8,000.0,037.1,031.0,017.9,0000.0,0003.31,0008.94,0002.51
2024-06-07 22:30:00,SystemResetWarning,0825.4,4.99,000.00,029.1,028.0,000.0,037.2,030.6,017.7,0000.0,0003.32,0008.90,0002.51
2024-06-07 22:31:00,SystemResetWarning,0825.3,5.00,000.00,028.8,025.9,000.0,037.2,029.6,017.2,0000.0,0003.28,0008.71,0002.50
2024-06-07 22:32:00,SystemResetWarning,0825.2,5.01,000.00,028.5,025.7,000.0,037.2,029.5,017.3,0000.0,0003.29,0008.81,0002.50
2024-06-07 22:33:00,SystemResetWarning,0825.3,5.01,000.00,028.5,026.3,000.0,037.1,029.7,017.7,0000.0,0003.29,0008.18,0002.51
2024-06-07 22:34:00,SystemResetWarning,0825.3,5.00,000.00,028.5,026.7,000.0,037.0,030.0,018.7,0000.0,0003.31,0008.16,0002.50
2024-06-07 22:35:00,SystemResetWarning,0825.3,5.00,000.00,028.6,027.1,000.0,037.0,030.2,017.9,0000.0,0003.33,0008.46,0002.49
2024-06-07 22:36:00,SystemResetWarning,0825.3,5.00,000.00,028.7,027.5,000.0,037.0,030.4,017.9,0000.0,0003.31,0007.96,0002.49
2024-06-07 22:37:00,SystemResetWarning,0825.3,5.00,000.00,028.8,027.8,000.0,037.0,030.5,017.2,0000.0,0003.33,0007.50,0002.48
2024-06-07 22:38:00,SystemResetWarning,0825.3,5.00,000.00,028.9,028.1,000.0,037.0,030.7,017.9,0000.0,0003.37,0007.38,0002.50
2024-06-07 22:39:00,SystemResetWarning,0825.3,5.00,000.00,028.9,028.4,000.0,037.0,030.8,017.4,0000.0,0003.39,0007.47,0002.50
2024-06-07 22:40:00,SystemResetWarning,0825.3,5.00,000.00,029.0,028.6,000.0,037.0,030.9,017.3,0000.0,0003.40,0007.84,0002.50
2024-06-07 22:41:00,SystemResetWarning,0825.3,5.00,000.00,029.1,028.7,000.0,037.1,031.0,017.4,0000.0,0003.40,0008.71,0002.52
2024-06-07 22:42:00,SystemResetWarning,0825.2,5.00,000.00,029.0,027.4,000.0,037.2,030.3,016.9,0000.0,0003.44,0008.84,0002.54
2024-06-07 22:43:00,SystemResetWarning,0825.2,5.00,000.00,028.7,025.6,000.0,037.2,029.5,017.2,0000.0,0003.43,0008.77,0002.55
2024-06-07 22:44:00,SystemResetWarning,0825.2,5.02,000.00,028.5,025.9,000.0,037.2,029.5,017.4,0000.0,0003.43,0008.78,0002.56
2024-06-07 22:45:00,SystemResetWarning,0825.2,4.99,000.00,028.5,026.4,000.0,037.1,029.8,017.2,0000.0,0003.43,0008.65,0002.59
2024-06-07 22:46:00,SystemResetWarning,0825.3,5.00,000.00,028.6,026.8,000.0,037.0,030.1,016.5,0000.0,0003.47,0008.68,0002.62
2024-06-07 22:47:00,SystemResetWarning,0825.3,5.01,000.00,028.6,027.3,000.0,037.0,030.3,016.7,0000.0,0003.50,0008.92,0002.67
2024-06-07 22:48:00,SystemResetWarning,0825.2,5.00,000.00,028.7,027.7,000.0,037.0,030.4,016.8,0000.0,0003.53,0008.95,0002.72
2024-06-07 22:49:00,SystemResetWarning,0825.2,5.00,000.00,028.8,028.0,000.0,037.0,030.6,016.8,0000.0,0003.52,0009.13,0002.76
2024-06-07 22:50:00,SystemResetWarning,0825.2,5.00,000.00,028.9,028.3,000.0,037.0,030.7,017.1,0000.0,0003.55,0009.17,0002.81
2024-06-07 22:51:00,SystemResetWarning,0825.2,4.99,000.00,028.9,028.5,000.0,037.1,030.8,016.3,0000.0,0003.59,0009.15,0002.85
2024-06-07 22:52:00,SystemResetWarning,0825.2,5.00,000.00,029.0,028.8,000.0,037.1,031.0,016.2,0000.0,0003.63,0008.15,0002.88
2024-06-07 22:53:00,SystemResetWarning,0825.2,5.00,000.00,029.1,028.7,000.0,037.2,030.9,016.7,0000.0,0003.66,0008.24,0002.92
2024-06-07 22:54:00,SystemResetWarning,0825.1,4.99,000.00,028.9,026.8,000.0,037.2,030.0,016.2,0000.0,0003.69,0008.27,0002.97
2024-06-07 22:55:00,SystemResetWarning,0825.1,5.01,000.00,028.6,025.5,000.0,037.2,029.4,016.8,0000.0,0003.72,0008.26,0003.02
2024-06-07 22:56:00,SystemResetWarning,0825.1,5.01,000.00,028.5,026.1,000.0,037.2,029.6,017.5,0000.0,0003.74,0008.27,0003.06
2024-06-07 22:57:00,SystemResetWarning,0825.1,5.00,000.00,028.5,026.6,000.0,037.1,029.9,017.4,0000.0,0003.72,0008.00,0003.08
2024-06-07 22:58:00,SystemResetWarning,0825.1,5.00,000.00,028.6,027.0,000.0,037.0,030.1,017.1,0000.0,0003.73,0008.38,0003.09
2024-06-07 22:59:00,SystemResetWarning,0825.1,5.00,000.00,028.6,027.5,000.0,037.0,030.3,017.0,0000.0,0003.74,0008.33,0003.10
